Regional Weather Roundup
Issued by NWS

Home | Current Version | Previous Version | Graphics & Text | Print | Product List | Glossary On
Versions: 1 2 3 4 5 6 7 8 9 10 11 12 13 14 15 16 17 18 19 20 21 22 23 24 25 26 27 28 29 30 31 32 33 34 35 36 37 38 39 40 41 42 43 44 45 46 47 48 49 50
000
ASUS43 KIND 220359
RWRIN

WEATHER ROUNDUP FOR INDIANA
NATIONAL WEATHER SERVICE INDIANAPOLIS IN
1100 PM EST TUE FEB 21 2017

NOTE: "FAIR" INDICATES FEW OR NO CLOUDS BELOW 12,000 FEET WITH NO
SIGNIFICANT WEATHER AND/OR OBSTRUCTIONS TO VISIBILITY.

* - STATION DOES NOT REPORT WEATHER SUCH AS PRECIPITATION OR FOG.

+ - STATION NOT QUALITY CONTROLLED BY THE NATIONAL WEATHER SERVICE.
    USE DATA WITH CAUTION...ESPECIALLY DEWPOINT AND RELATIVE
    HUMIDITY OBSERVATIONS.

INZ001>003-010>013-019-020-220500-
NORTHWEST INDIANA

CITY           SKY/WX    TMP DP  RH WIND       PRES   REMARKS
GARY /AIRPORT/ MOCLDY    57  53  85 S3        29.88F
KNOX *+        PTCLDY    50  36  57 S3        29.91S
LA PORTE +     MOCLDY    48  48  99 S3        29.91F FOG
MICHIGAN CITY+ PTCLDY    52  52 100 S3        29.89F
RENSSELAER +   PTCLDY    52  50  93 CALM      29.91F

$$

LMZ046-743>745-220500-
SOUTHERN LAKE MICHIGAN

STATION/POSITION TIME  TEMP    WIND        PRES    WAVE
                       AIR SEA DIR/SP/G            HT
                 (UTC) (F)     (DEG/KT/KT) (MB)    (FT)
BURNS HARBOR     0340   57     180/  7/ 11 1012.5F
MICHIGAN CITY    0330   57     140/ 10/ 12   N/A

$$

INZ004-005-014>016-021>024-220500-
NORTH CENTRAL INDIANA

CITY           SKY/WX    TMP DP  RH WIND       PRES   REMARKS
GOSHEN         CLOUDY    51  47  86 CALM      29.91F
PERU/GRISSOM   CLOUDY    52  52 100 S6        29.91F
SOUTH BEND     PTCLDY    46  45  96 S3        29.91F FOG
WARSAW +       MOCLDY    50  46  87 CALM      29.92S

$$

INZ006>009-017-018-025>027-220500-
NORTHEAST INDIANA

CITY           SKY/WX    TMP DP  RH WIND       PRES   REMARKS
ANGOLA *+      MOCLDY    48  46  93 CALM      29.92F
AUBURN +       PTCLDY    50  46  87 CALM      29.93F
FORT WAYNE     CLOUDY    49  45  86 S5        29.93F
KENDALLVILLE + MOCLDY    50  48  91 S3        29.92F

$$

INZ028-029-035-036-043>045-051>053-220500-
WEST CENTRAL INDIANA

CITY           SKY/WX    TMP DP  RH WIND       PRES   REMARKS
GREENCASTLE +  CLOUDY    54  52  94 S5        29.94S
LAFAYETTE      CLOUDY    54  51  90 CALM      29.92F
TERRE HAUTE    CLOUDY    53  50  89 CALM      29.93F

$$

INZ030>032-037>040-046>048-054>057-064-065-220500-
CENTRAL INDIANA

CITY           SKY/WX    TMP DP  RH WIND       PRES   REMARKS
CP ATTERBURY + CLOUDY    54  52  94 SE7       29.96F
FRANKFORT +    CLOUDY    56  51  84 SW3       29.94F
GREENWOOD *+   CLOUDY    56  55  95 S9        29.95F
INDIANAPOLIS   CLOUDY    56  53  90 S6        29.94F
-EAGLE CREEK   CLOUDY    56  53  90 S3        29.93F
KOKOMO +       CLOUDY    51  48  89 S7        29.94F
MT COMFORT *+  CLOUDY    54  52  94 S7        29.94F
SHELBYVILLE    MOCLDY    57  52  83 S12       29.94F

$$

INZ033-034-041-042-049-050-058-059-220500-
EAST CENTRAL INDIANA

CITY           SKY/WX    TMP DP  RH WIND       PRES   REMARKS
MUNCIE         MOCLDY    56  51  84 S3        29.94F

$$

INZ060-061-067>069-081>083-085>088-220500-
SOUTHWEST INDIANA

CITY           SKY/WX    TMP DP  RH WIND       PRES   REMARKS
EVANSVILLE     CLOUDY    60  54  80 CALM      29.92F
HUNTINGBURG *+ CLOUDY    59  55  87 SE6       29.94S

$$

INZ062-063-066-070>080-084-089>092-220500-
SOUTH CENTRAL AND SOUTHEAST INDIANA

CITY           SKY/WX    TMP DP  RH WIND       PRES   REMARKS
BLOOMINGTON    CLOUDY    55  52  89 SE7       29.94F FOG
MADISON *+     CLOUDY    55  54  94 CALM      29.99F
SEYMOUR +      DRIZZLE   55  55 100 S3        29.97F

$$




USA.gov is the U.S. government's official web portal to all federal, state and local government web resources and services.